Meridian, MS

1:23 AM CST on December 03, 2016 (GMT -0600)
Meridian Naval Air Station

Weather History for KNMM - August, 2013

Change the Weather History Date:

Thursday, August 8, 2013

  Actual Average Record
Temperature  
Mean Temperature 82 °F -  
Max Temperature 91 °F 87 °F 100 °F (2015)
Min Temperature 72 °F 69 °F 69 °F (2008)
Cooling Degree Days 16    
Growing Degree Days 32 (Base 50)    
Moisture  
Dew Point 74 °F    
Average Humidity 81    
Maximum Humidity 97    
Minimum Humidity 59    
Precipitation  
Precipitation 0.71 in - - ()
Sea Level Pressure  
Sea Level Pressure 29.98 in    
Wind  
Wind Speed 3 mph (SE)    
Max Wind Speed 13 mph    
Max Gust Speed 32 mph    
Visibility 8 miles    
Events Rain , Thunderstorm    
Averages and records for this station are not official NWS values.
T = Trace of Precipitation, MM = Missing Value Source: NWS Daily Summary

Daily Weather History Graph

Daily Weather History Graph

Search for Another Location

Airport or City:

Trip Planner

Search our weather history database for the weather conditions in past years. The results will help you decide how hot, cold, wet, or windy it might be!

Date:

Astronomy

Aug. 08, 2013 Rise Set
Actual Time 6:13 AM CDT 7:45 PM CDT
Civil Twilight 5:47 AM CDT 8:12 PM CDT
Nautical Twilight 5:15 AM CDT 8:43 PM CDT
Astronomical Twilight 4:42 AM CDT 9:16 PM CDT
Moon 7:50 AM CDT (8/8) 8:35 PM CDT (8/8)
Length of Visible Light 14h 24m
Length of Day
13h 32m
Waxing Crescent, 3% of the Moon is Illuminated
Aug 8
Waxing Crescent
Aug 14
First Quarter
Aug 20
Full
Aug 28
Last Quarter
Sep 5
New

Hourly Weather History & Observations

Time (CDT) Temp. Heat Index Dew Point Humidity Pressure Visibility Wind Dir Wind Speed Gust Speed Precip Events Conditions
12:56 AM 75.0 °F - 73.0 °F 94% 29.99 in 10.0 mi Calm Calm - N/A   Clear
1:56 AM 75.0 °F - 72.0 °F 90% 29.98 in 10.0 mi East 4.6 mph - N/A   Mostly Cloudy
2:56 AM 73.9 °F - 72.0 °F 93% 29.97 in 10.0 mi Calm Calm - N/A   Overcast
3:56 AM 73.9 °F - 72.0 °F 93% 29.96 in 9.0 mi Calm Calm - N/A   Clear
4:56 AM 73.0 °F - 72.0 °F 96% 29.97 in 8.0 mi Calm Calm - N/A   Clear
5:56 AM 72.0 °F - 71.1 °F 97% 29.98 in 5.0 mi SE 3.5 mph - N/A   Clear
6:56 AM 73.9 °F - 72.0 °F 93% 29.99 in 7.0 mi Calm Calm - N/A   Clear
6:59 AM 73.4 °F - 71.6 °F 94% 29.96 in 7.0 mi Calm Calm - N/A   Clear
7:56 AM 77.0 °F - 73.9 °F 90% 30.00 in 9.0 mi Calm Calm - N/A   Clear
8:56 AM 82.0 °F 89.4 °F 75.9 °F 82% 30.00 in 10.0 mi Calm Calm - N/A   Partly Cloudy
9:56 AM 84.9 °F 95.3 °F 77.0 °F 77% 30.01 in 10.0 mi ESE 5.8 mph - N/A   Scattered Clouds
10:56 AM 89.1 °F 101.4 °F 77.0 °F 67% 30.02 in 10.0 mi Variable 3.5 mph - N/A   Scattered Clouds
11:56 AM 91.0 °F 102.9 °F 75.9 °F 61% 30.01 in 10.0 mi Variable 3.5 mph - N/A   Mostly Cloudy
12:46 PM 91.4 °F 102.5 °F 75.2 °F 59% 29.98 in 10.0 mi SE 6.9 mph - N/A   Scattered Clouds
12:56 PM 91.0 °F 101.6 °F 75.0 °F 59% 30.00 in 10.0 mi Calm Calm - 0.00 in Rain Light Rain
1:41 PM 84.2 °F 92.3 °F 75.2 °F 74% 29.98 in 1.8 mi Variable 3.5 mph - 0.12 in Rain , Thunderstorm Light Thunderstorms and Rain
1:44 PM 80.6 °F 86.2 °F 75.2 °F 84% 29.98 in 0.5 mi Variable 6.9 mph - 0.33 in Rain , Thunderstorm Light Thunderstorms and Rain
1:52 PM 78.8 °F - 68.0 °F 69% 29.97 in 0.2 mi South 12.7 mph 32.2 mph 0.66 in Rain , Thunderstorm Light Thunderstorms and Rain
1:54 PM 78.8 °F - 69.8 °F 74% 29.97 in 0.5 mi SSW 9.2 mph 32.2 mph 0.68 in Rain , Thunderstorm Heavy Thunderstorms and Rain
1:56 PM 77.0 °F - 70.0 °F 79% 29.99 in 0.8 mi SSW 10.4 mph 32.2 mph 0.69 in Rain , Thunderstorm Heavy Thunderstorms and Rain
1:58 PM 75.2 °F - 71.6 °F 89% 29.96 in 1.2 mi SW 6.9 mph - 0.01 in Rain , Thunderstorm Thunderstorms and Rain
2:12 PM 78.8 °F - 73.4 °F 83% 29.95 in 10.0 mi SE 4.6 mph - 0.02 in Rain , Thunderstorm Light Thunderstorms and Rain
2:21 PM 78.8 °F - 75.2 °F 89% 29.95 in 10.0 mi Calm Calm - 0.02 in   Mostly Cloudy
2:56 PM 86.0 °F 98.3 °F 78.1 °F 77% 29.96 in 10.0 mi SSE 4.6 mph - 0.02 in   Mostly Cloudy
3:56 PM 89.1 °F 104.4 °F 79.0 °F 72% 29.94 in 10.0 mi SE 3.5 mph - N/A   Scattered Clouds
4:56 PM 91.9 °F 105.9 °F 77.0 °F 62% 29.94 in 10.0 mi SE 6.9 mph - N/A   Scattered Clouds
5:56 PM 88.0 °F 101.3 °F 78.1 °F 72% 29.96 in 10.0 mi SSE 3.5 mph - N/A   Scattered Clouds
6:56 PM 87.1 °F 99.8 °F 78.1 °F 74% 29.96 in 10.0 mi SE 4.6 mph - N/A   Scattered Clouds
7:56 PM 84.0 °F 93.7 °F 77.0 °F 79% 29.98 in 10.0 mi East 3.5 mph - N/A   Scattered Clouds
8:56 PM 80.1 °F 86.4 °F 78.1 °F 94% 29.97 in 9.0 mi ESE 3.5 mph - N/A   Partly Cloudy
9:56 PM 81.0 °F 87.3 °F 75.9 °F 85% 29.98 in 10.0 mi SSE 5.8 mph - N/A   Partly Cloudy
10:56 PM 80.1 °F 85.1 °F 75.0 °F 85% 29.98 in 10.0 mi SE 5.8 mph - N/A   Scattered Clouds
11:56 PM 79.0 °F - 75.0 °F 88% 30.00 in 10.0 mi Calm Calm - N/A   Scattered Clouds